Flag for U.S.A. Weather past 2 weeks in Waterbury, Connecticut, U.S.A.

Now
79 °F

Scattered clouds.


Feels Like: 80 °F
Forecast: 67 / 80 °F
Wind: 7 mph from West

Location: Oxford

Current Time: Jul 1, 2015 at 6:08:00 PM

Latest Report: Jul 1, 2015 at 4:50 PM


Visibility: 10 mi

Pressure: 29.79 "Hg

Humidity: 58%

Dew point: 63 °F

Location of WaterburyLocation

Historic Weather in Waterbury — Graph

°F

Waterbury temperature yesterday

Maximum temperature yesterday: 79 °F (at 11:50 AM)
Minimum temperature yesterday: 61 °F (at 12:15 AM)
Average temperature yesterday: 67 °F

Past Weeks' High & Low Weather Summary

 TemperatureHumidityPressure
High86 °F (Jun 23, 2:50 PM)100% (Jul 1, 5:50 AM)30.18 "Hg (Jul 1, 5:50 AM)
Low34 °F (Jul 1, 5:50 AM)42% (Jun 25, 2:50 PM)29.68 "Hg (Jun 28, 11:50 AM)
Average66 °F71%29.96 "Hg
* Reported Jun 16 3:50 PM — Jul 1 3:50 PM, Waterbury, Weather by CustomWeather, © 2015

Note: Actual official high and low records may vary slightly from our data, if they occured in-between our weather recording intervals... More about our weather records

Advertising

Waterbury weather history for previous 24 hours

 ConditionsComfort  
Time TempWeatherWind HumidityBarometerVisibility
3:50 PM
Wed, Jul 1
79 °FWarm.12 mph58%29.78 "Hg10 mi
2:50 PM75 °FPartly sunny.8 mph65%29.78 "Hg10 mi
1:50 PM75 °FPartly sunny.6 mph69%29.79 "Hg10 mi
12:50 PM75 °FPartly sunny.7 mph69%29.80 "Hg10 mi
11:50 AM73 °FPartly sunny.9 mph74%29.80 "Hg10 mi
10:50 AM73 °FBroken clouds.6 mph74%29.81 "Hg10 mi
9:50 AM73 °FBroken clouds.5 mph74%29.81 "Hg10 mi
8:50 AM70 °FPartly sunny.No wind78%29.80 "Hg10 mi
7:50 AM70 °FPartly sunny.6 mph78%29.79 "Hg10 mi
6:55 AM70 °FFog.No wind78%29.78 "Hg4 mi
5:50 AM34 °FChilly.9 mph100%N/A1 mi
5:35 AM70 °FThunderstorms. Low clouds.6 mph83%29.80 "Hg2 mi
5:15 AM70 °FLow clouds.7 mph83%29.78 "Hg2 mi
4:55 AM70 °FLow clouds.7 mph83%29.79 "Hg1 mi
4:35 AM70 °FLow clouds.8 mph83%29.81 "Hg2 mi
4:15 AM70 °FLow clouds.9 mph83%29.82 "Hg2 mi
3:55 AM70 °FLow clouds.10 mph83%29.83 "Hg4 mi
3:35 AM70 °FLow clouds.9 mph83%29.84 "Hg5 mi
2:55 AM70 °FLow clouds.14 mph83%29.85 "Hg6 mi
2:35 AM70 °FLow clouds.10 mph83%29.85 "Hg7 mi
2:15 AM70 °FLow clouds.12 mph78%29.86 "Hg7 mi
1:55 AM70 °FMostly cloudy.12 mph78%29.86 "Hg10 mi
1:35 AM70 °FMostly cloudy.9 mph78%29.88 "Hg8 mi
1:15 AM70 °FLow clouds.12 mph78%29.89 "Hg8 mi
12:15 AM68 °FLow clouds.9 mph78%29.91 "Hg10 mi
11:55 PM
Tue, Jun 30
68 °FOvercast.9 mph78%29.91 "Hg10 mi
11:35 PM68 °FMostly cloudy.9 mph78%29.93 "Hg10 mi
11:15 PM68 °FMostly cloudy.10 mph73%29.93 "Hg10 mi
10:55 PM66 °FOvercast.12 mph73%29.94 "Hg10 mi
10:35 PM68 °FPassing clouds.10 mph69%29.94 "Hg10 mi
10:15 PM68 °FPassing clouds.8 mph69%29.94 "Hg10 mi
9:55 PM68 °FPassing clouds.10 mph69%29.94 "Hg10 mi
9:35 PM68 °FClear.8 mph69%29.94 "Hg10 mi
9:15 PM70 °FPassing clouds.10 mph64%29.94 "Hg10 mi
8:50 PM70 °FPartly sunny.10 mph64%29.93 "Hg10 mi
7:50 PM70 °FPartly sunny.12 mph60%29.94 "Hg10 mi
6:50 PM73 °FPartly sunny.12 mph57%29.94 "Hg10 mi
Weather by CustomWeather, © 2015

See weather overviewHow to use our weather pages